PIMOHWEATHER Station Historical Data
Daily Summary for March 03, 2020 Units:  Metric    English   Both
Daily Weekly Monthly Yearly
  High: Low: Average:
Temperature: 34.0 °C 24.0 °C 28.2 °C
Dew Point: 25.0 °C 21.0 °C 22.3 °C
Humidity: 82% 60% 71%
Wind Speed: 22km/h 0km/h 6.5km/h
Wind Gust: 24km/h - -
Wind- - SSE
Pressure: 1013.2 hPa 1008.8 hPa -
Precipitation: 0.00 mm    
 
 
Tabular Data for March 03, 2020
Time Temperature Dew Point Pressure Wind Wind Speed Wind Gust Humidity Rainfall Rate (Hourly) solar
00:04 26.0 °C 21.0 °C 1011.9 hPa ESE 3 km/h 4 km/h 72% 0.00 mm 0.00 W/m2
00:09 26.0 °C 21.0 °C 1011.9 hPa ESE 3 km/h 4 km/h 72% 0.00 mm 0.00 W/m2
00:14 26.0 °C 21.0 °C 1011.9 hPa East 4 km/h 4 km/h 72% 0.00 mm 0.00 W/m2
00:19 26.0 °C 21.0 °C 1011.5 hPa ESE 3 km/h 4 km/h 73% 0.00 mm 0.00 W/m2
00:24 26.0 °C 21.0 °C 1011.5 hPa NNE 2 km/h 4 km/h 73% 0.00 mm 0.00 W/m2
00:29 26.0 °C 21.0 °C 1011.5 hPa SE 1 km/h 4 km/h 73% 0.00 mm 0.00 W/m2
00:34 26.0 °C 21.0 °C 1011.5 hPa SSE 3 km/h 4 km/h 73% 0.00 mm 0.00 W/m2
00:39 26.0 °C 21.0 °C 1011.5 hPa ESE 4 km/h 4 km/h 73% 0.00 mm 0.00 W/m2
00:44 26.0 °C 21.0 °C 1011.5 hPa SE 4 km/h 8 km/h 73% 0.00 mm 0.00 W/m2
00:49 26.0 °C 21.0 °C 1011.5 hPa ESE 4 km/h 8 km/h 73% 0.00 mm 0.00 W/m2
00:54 26.0 °C 21.0 °C 1011.5 hPa SE 3 km/h 4 km/h 73% 0.00 mm 0.00 W/m2
00:59 26.0 °C 21.0 °C 1011.5 hPa East 2 km/h 4 km/h 73% 0.00 mm 0.00 W/m2
01:04 26.0 °C 21.0 °C 1011.5 hPa Calm   4 km/h 73% 0.00 mm 0.00 W/m2
01:09 26.0 °C 21.0 °C 1011.5 hPa East 1 km/h 4 km/h 73% 0.00 mm 0.00 W/m2
01:14 26.0 °C 21.0 °C 1011.2 hPa ESE 3 km/h 4 km/h 73% 0.00 mm 0.00 W/m2
01:19 26.0 °C 21.0 °C 1011.2 hPa South 2 km/h 4 km/h 74% 0.00 mm 0.00 W/m2
01:24 26.0 °C 21.0 °C 1011.2 hPa ESE 5 km/h 8 km/h 74% 0.00 mm 0.00 W/m2
01:29 26.0 °C 21.0 °C 1011.2 hPa SE 3 km/h 4 km/h 74% 0.00 mm 0.00 W/m2
01:34 26.0 °C 21.0 °C 1011.2 hPa Calm   4 km/h 75% 0.00 mm 0.00 W/m2
01:39 26.0 °C 21.0 °C 1011.2 hPa SE 2 km/h 4 km/h 75% 0.00 mm 0.00 W/m2
01:44 26.0 °C 21.0 °C 1011.5 hPa Calm     75% 0.00 mm 0.00 W/m2
01:49 26.0 °C 21.0 °C 1011.2 hPa ESE 1 km/h 4 km/h 75% 0.00 mm 0.00 W/m2
01:54 26.0 °C 21.0 °C 1011.2 hPa NE 3 km/h 4 km/h 75% 0.00 mm 0.00 W/m2
01:59 26.0 °C 21.0 °C 1011.2 hPa NE 2 km/h 4 km/h 75% 0.00 mm 0.00 W/m2
02:04 26.0 °C 21.0 °C 1011.2 hPa Calm     75% 0.00 mm 0.00 W/m2
02:09 26.0 °C 21.0 °C 1011.2 hPa NNE 4 km/h 4 km/h 76% 0.00 mm 0.00 W/m2
02:14 26.0 °C 21.0 °C 1011.2 hPa Calm     76% 0.00 mm 0.00 W/m2
02:19 26.0 °C 21.0 °C 1011.2 hPa Calm     76% 0.00 mm 0.00 W/m2
02:24 26.0 °C 21.0 °C 1011.2 hPa Calm     76% 0.00 mm 0.00 W/m2
02:29 26.0 °C 21.0 °C 1011.2 hPa Calm     77% 0.00 mm 0.00 W/m2
02:34 26.0 °C 21.0 °C 1011.2 hPa Calm     77% 0.00 mm 0.00 W/m2
02:39 26.0 °C 21.0 °C 1011.2 hPa Calm   4 km/h 77% 0.00 mm 0.00 W/m2
02:44 26.0 °C 21.0 °C 1011.2 hPa Calm   4 km/h 77% 0.00 mm 0.00 W/m2
02:49 26.0 °C 21.0 °C 1011.2 hPa Calm   4 km/h 77% 0.00 mm 0.00 W/m2
02:54 26.0 °C 21.0 °C 1011.2 hPa Calm   4 km/h 77% 0.00 mm 0.00 W/m2
02:59 26.0 °C 21.0 °C 1011.2 hPa ENE 4 km/h 4 km/h 77% 0.00 mm 0.00 W/m2
03:04 26.0 °C 21.0 °C 1011.2 hPa Calm   4 km/h 76% 0.00 mm 0.00 W/m2
03:09 26.0 °C 21.0 °C 1011.2 hPa NNE 1 km/h 4 km/h 76% 0.00 mm 0.00 W/m2
03:14 26.0 °C 21.0 °C 1011.2 hPa Calm   4 km/h 76% 0.00 mm 0.00 W/m2
03:19 26.0 °C 21.0 °C 1011.2 hPa North 4 km/h 4 km/h 77% 0.00 mm 0.00 W/m2
03:24 26.0 °C 21.0 °C 1011.2 hPa North 4 km/h 4 km/h 77% 0.00 mm 0.00 W/m2
03:29 25.0 °C 21.0 °C 1011.2 hPa NNE 1 km/h 4 km/h 77% 0.00 mm 0.00 W/m2
03:34 25.0 °C 21.0 °C 1011.2 hPa ENE 4 km/h 8 km/h 77% 0.00 mm 0.00 W/m2
03:39 25.0 °C 21.0 °C 1011.2 hPa NNE 5 km/h 8 km/h 78% 0.00 mm 0.00 W/m2
03:44 25.0 °C 21.0 °C 1011.2 hPa North 6 km/h 8 km/h 78% 0.00 mm 0.00 W/m2
03:49 25.0 °C 21.0 °C 1011.2 hPa North 7 km/h 8 km/h 79% 0.00 mm 0.00 W/m2
03:54 25.0 °C 21.0 °C 1011.2 hPa NNE 3 km/h 4 km/h 79% 0.00 mm 0.00 W/m2
03:59 25.0 °C 21.0 °C 1011.2 hPa NE 4 km/h 4 km/h 78% 0.00 mm 0.00 W/m2
04:04 25.0 °C 21.0 °C 1011.2 hPa NE 1 km/h 4 km/h 78% 0.00 mm 0.00 W/m2
04:09 25.0 °C 21.0 °C 1011.2 hPa NNE 5 km/h 8 km/h 78% 0.00 mm 0.00 W/m2
04:14 25.0 °C 21.0 °C 1011.2 hPa Calm     78% 0.00 mm 0.00 W/m2
04:19 25.0 °C 21.0 °C 1011.2 hPa North 6 km/h 8 km/h 79% 0.00 mm 0.00 W/m2
04:24 25.0 °C 21.0 °C 1011.2 hPa North 5 km/h 8 km/h 79% 0.00 mm 0.00 W/m2
04:29 25.0 °C 21.0 °C 1011.2 hPa North 6 km/h 8 km/h 79% 0.00 mm 0.00 W/m2
04:34 25.0 °C 21.0 °C 1011.2 hPa North 4 km/h 4 km/h 79% 0.00 mm 0.00 W/m2
04:39 25.0 °C 21.0 °C 1011.2 hPa NNE 3 km/h 4 km/h 79% 0.00 mm 0.00 W/m2
04:44 25.0 °C 21.0 °C 1011.2 hPa Calm     79% 0.00 mm 0.00 W/m2
04:49 25.0 °C 21.0 °C 1011.2 hPa Calm     79% 0.00 mm 0.00 W/m2
04:54 25.0 °C 21.0 °C 1011.2 hPa Calm     79% 0.00 mm 0.00 W/m2
04:59 25.0 °C 21.0 °C 1011.5 hPa Calm     78% 0.00 mm 0.00 W/m2
05:04 25.0 °C 21.0 °C 1011.9 hPa Calm     79% 0.00 mm 0.00 W/m2
05:09 25.0 °C 21.0 °C 1011.5 hPa Calm     79% 0.00 mm 0.00 W/m2
05:14 25.0 °C 21.0 °C 1011.9 hPa North 1 km/h 4 km/h 79% 0.00 mm 0.00 W/m2
05:19 25.0 °C 21.0 °C 1011.9 hPa North 5 km/h 8 km/h 79% 0.00 mm 0.00 W/m2
05:24 25.0 °C 21.0 °C 1011.9 hPa North 7 km/h 8 km/h 79% 0.00 mm 0.00 W/m2
05:29 25.0 °C 21.0 °C 1011.9 hPa North 10 km/h 12 km/h 79% 0.00 mm 0.00 W/m2
05:34 25.0 °C 21.0 °C 1012.2 hPa NNW 7 km/h 8 km/h 79% 0.00 mm 0.00 W/m2
05:39 25.0 °C 21.0 °C 1012.2 hPa NNW 8 km/h 12 km/h 80% 0.00 mm 0.00 W/m2
05:44 24.0 °C 21.0 °C 1012.2 hPa North 13 km/h 16 km/h 81% 0.00 mm 0.00 W/m2
05:49 24.0 °C 21.0 °C 1012.2 hPa North 11 km/h 16 km/h 81% 0.00 mm 0.00 W/m2
05:54 24.0 °C 21.0 °C 1012.2 hPa North 14 km/h 20 km/h 81% 0.00 mm 0.00 W/m2
05:59 24.0 °C 21.0 °C 1012.2 hPa North 13 km/h 20 km/h 82% 0.00 mm 0.00 W/m2
06:04 24.0 °C 21.0 °C 1012.2 hPa North 12 km/h 12 km/h 82% 0.00 mm 0.00 W/m2
06:09 24.0 °C 21.0 °C 1012.2 hPa NNW 10 km/h 12 km/h 82% 0.00 mm 0.15 W/m2
06:14 24.0 °C 21.0 °C 1012.2 hPa North 9 km/h 12 km/h 82% 0.00 mm 2.99 W/m2
06:19 24.0 °C 21.0 °C 1012.5 hPa North 9 km/h 12 km/h 82% 0.00 mm 6.70 W/m2
06:24 24.0 °C 21.0 °C 1012.5 hPa North 10 km/h 12 km/h 82% 0.00 mm 11.33 W/m2
06:29 24.0 °C 21.0 °C 1012.5 hPa North 8 km/h 8 km/h 82% 0.00 mm 17.30 W/m2
06:34 24.0 °C 21.0 °C 1012.5 hPa North 6 km/h 8 km/h 82% 0.00 mm 22.27 W/m2
06:39 24.0 °C 21.0 °C 1012.5 hPa North 6 km/h 8 km/h 82% 0.00 mm 26.59 W/m2
06:44 24.0 °C 21.0 °C 1012.5 hPa North 8 km/h 8 km/h 82% 0.00 mm 31.03 W/m2
06:49 24.0 °C 21.0 °C 1012.5 hPa North 6 km/h 8 km/h 82% 0.00 mm 34.21 W/m2
06:54 24.0 °C 21.0 °C 1012.5 hPa North 5 km/h 8 km/h 81% 0.00 mm 37.92 W/m2
06:59 24.0 °C 21.0 °C 1012.5 hPa North 9 km/h 12 km/h 81% 0.00 mm 41.66 W/m2
07:04 24.0 °C 21.0 °C 1012.9 hPa North 10 km/h 12 km/h 81% 0.00 mm 75.91 W/m2
07:09 24.0 °C 21.0 °C 1012.9 hPa North 13 km/h 16 km/h 81% 0.00 mm 87.12 W/m2
07:14 25.0 °C 21.0 °C 1012.9 hPa North 9 km/h 12 km/h 81% 0.00 mm 96.49 W/m2
07:19 25.0 °C 21.0 °C 1012.9 hPa North 11 km/h 12 km/h 80% 0.00 mm 104.54 W/m2
07:24 25.0 °C 21.0 °C 1012.9 hPa North 10 km/h 12 km/h 79% 0.00 mm 113.03 W/m2
07:29 25.0 °C 21.0 °C 1012.9 hPa North 6 km/h 8 km/h 79% 0.00 mm 123.43 W/m2
07:34 25.0 °C 21.0 °C 1013.2 hPa NW 10 km/h 12 km/h 78% 0.00 mm 131.97 W/m2
07:39 26.0 °C 21.0 °C 1013.2 hPa NW 8 km/h 8 km/h 78% 0.00 mm 134.79 W/m2
07:44 26.0 °C 21.0 °C 1012.9 hPa NW 8 km/h 8 km/h 77% 0.00 mm 148.24 W/m2
07:49 26.0 °C 21.0 °C 1012.9 hPa North 8 km/h 8 km/h 77% 0.00 mm 157.78 W/m2
07:54 26.0 °C 22.0 °C 1012.9 hPa NNE 9 km/h 12 km/h 76% 0.00 mm 173.25 W/m2
07:59 27.0 °C 22.0 °C 1012.9 hPa North 6 km/h 8 km/h 75% 0.00 mm 178.97 W/m2
08:04 27.0 °C 22.0 °C 1012.9 hPa NNW 8 km/h 8 km/h 75% 0.00 mm 182.96 W/m2
08:09 27.0 °C 22.0 °C 1012.9 hPa NNE 9 km/h 12 km/h 75% 0.00 mm 195.37 W/m2
08:14 27.0 °C 22.0 °C 1012.9 hPa NNE 7 km/h 8 km/h 75% 0.00 mm 214.11 W/m2
08:19 27.0 °C 22.0 °C 1012.9 hPa NNE 8 km/h 12 km/h 73% 0.00 mm 224.31 W/m2
08:24 28.0 °C 22.0 °C 1012.9 hPa NNW 8 km/h 8 km/h 72% 0.00 mm 227.22 W/m2
08:29 28.0 °C 22.0 °C 1012.9 hPa NW 6 km/h 8 km/h 72% 0.00 mm 226.68 W/m2
08:34 29.0 °C 22.0 °C 1012.9 hPa WSW 4 km/h 8 km/h 70% 0.00 mm 247.14 W/m2
08:39 29.0 °C 22.0 °C 1012.9 hPa North 5 km/h 8 km/h 69% 0.00 mm 252.13 W/m2
08:44 30.0 °C 23.0 °C 1012.9 hPa ESE 5 km/h 8 km/h 68% 0.00 mm 265.76 W/m2
08:49 30.0 °C 23.0 °C 1012.9 hPa West 3 km/h 4 km/h 66% 0.00 mm 272.76 W/m2
08:54 30.0 °C 23.0 °C 1012.9 hPa SSE 9 km/h 12 km/h 65% 0.00 mm 289.05 W/m2
08:59 30.0 °C 23.0 °C 1012.9 hPa SSE 5 km/h 8 km/h 66% 0.00 mm 287.66 W/m2
09:04 31.0 °C 23.0 °C 1012.9 hPa SSW 6 km/h 8 km/h 63% 0.00 mm 300.55 W/m2
09:09 30.0 °C 22.0 °C 1012.9 hPa NNE 6 km/h 8 km/h 64% 0.00 mm 309.78 W/m2
09:14 30.0 °C 22.0 °C 1012.9 hPa North 7 km/h 8 km/h 65% 0.00 mm 320.34 W/m2
09:19 31.0 °C 23.0 °C 1012.9 hPa East 9 km/h 12 km/h 63% 0.00 mm 316.65 W/m2
09:24 30.0 °C 22.0 °C 1013.2 hPa NNE 9 km/h 12 km/h 64% 0.00 mm 318.19 W/m2
09:29 29.0 °C 22.0 °C 1012.9 hPa North 12 km/h 16 km/h 65% 0.00 mm 325.61 W/m2
09:34 30.0 °C 22.0 °C 1012.9 hPa SSE 8 km/h 12 km/h 65% 0.00 mm 352.59 W/m2
09:39 31.0 °C 23.0 °C 1012.9 hPa ESE 5 km/h 8 km/h 63% 0.00 mm 360.69 W/m2
09:44 31.0 °C 23.0 °C 1012.9 hPa South 6 km/h 8 km/h 62% 0.00 mm 364.78 W/m2
09:49 31.0 °C 22.0 °C 1012.9 hPa East 5 km/h 8 km/h 62% 0.00 mm 355.92 W/m2
09:54 30.0 °C 23.0 °C 1012.9 hPa SSE 16 km/h 20 km/h 69% 0.00 mm 166.05 W/m2
09:59 30.0 °C 23.0 °C 1012.9 hPa SSE 15 km/h 20 km/h 69% 0.00 mm 222.38 W/m2
10:04 29.0 °C 23.0 °C 1012.9 hPa South 13 km/h 16 km/h 71% 0.00 mm 366.25 W/m2
10:09 29.0 °C 23.0 °C 1012.9 hPa South 10 km/h 12 km/h 71% 0.00 mm 364.56 W/m2
10:14 29.0 °C 23.0 °C 1012.9 hPa South 13 km/h 16 km/h 70% 0.00 mm 302.51 W/m2
10:19 29.0 °C 23.0 °C 1012.9 hPa South 11 km/h 16 km/h 70% 0.00 mm 215.82 W/m2
10:24 29.0 °C 23.0 °C 1012.9 hPa SW 6 km/h 8 km/h 68% 0.00 mm 405.54 W/m2
10:29 30.0 °C 23.0 °C 1012.9 hPa West 7 km/h 8 km/h 67% 0.00 mm 414.72 W/m2
10:34 31.0 °C 23.0 °C 1012.5 hPa SW 8 km/h 12 km/h 65% 0.00 mm 412.51 W/m2
10:39 31.0 °C 23.0 °C 1012.5 hPa West 8 km/h 12 km/h 64% 0.00 mm 440.77 W/m2
10:44 31.0 °C 23.0 °C 1012.2 hPa South 10 km/h 12 km/h 63% 0.00 mm 450.56 W/m2
10:49 31.0 °C 23.0 °C 1012.2 hPa WNW 13 km/h 16 km/h 65% 0.00 mm 181.52 W/m2
10:54 30.0 °C 23.0 °C 1012.2 hPa South 9 km/h 12 km/h 65% 0.00 mm 144.96 W/m2
10:59 30.0 °C 23.0 °C 1012.2 hPa SSE 6 km/h 8 km/h 65% 0.00 mm 155.29 W/m2
11:04 30.0 °C 23.0 °C 1012.2 hPa SSW 6 km/h 8 km/h 65% 0.00 mm 303.66 W/m2
11:09 30.0 °C 23.0 °C 1011.9 hPa WSW 10 km/h 16 km/h 68% 0.00 mm 421.08 W/m2
11:14 30.0 °C 23.0 °C 1011.9 hPa West 6 km/h 16 km/h 68% 0.00 mm 257.10 W/m2
11:19 30.0 °C 23.0 °C 1011.9 hPa South 8 km/h 12 km/h 67% 0.00 mm 449.48 W/m2
11:24 31.0 °C 23.0 °C 1011.9 hPa SSW 6 km/h 12 km/h 65% 0.00 mm 459.64 W/m2
11:29 31.0 °C 24.0 °C 1011.5 hPa SSE 6 km/h 12 km/h 64% 0.00 mm 487.26 W/m2
11:34 31.0 °C 23.0 °C 1011.2 hPa West 10 km/h 12 km/h 64% 0.00 mm 475.10 W/m2
11:39 32.0 °C 24.0 °C 1011.5 hPa SW 14 km/h 16 km/h 64% 0.00 mm 454.01 W/m2
11:44 32.0 °C 24.0 °C 1011.2 hPa South 12 km/h 16 km/h 64% 0.00 mm 449.31 W/m2
11:49 32.0 °C 24.0 °C 1011.2 hPa SSW 8 km/h 16 km/h 64% 0.00 mm 445.86 W/m2
11:54 31.0 °C 24.0 °C 1011.2 hPa WSW 12 km/h 16 km/h 65% 0.00 mm 449.63 W/m2
11:59 31.0 °C 24.0 °C 1011.2 hPa WSW 10 km/h 16 km/h 64% 0.00 mm 455.28 W/m2
12:04 31.0 °C 24.0 °C 1011.2 hPa SSW 10 km/h 12 km/h 65% 0.00 mm 450.63 W/m2
12:09 31.0 °C 24.0 °C 1011.2 hPa SW 18 km/h 24 km/h 66% 0.00 mm 493.57 W/m2
12:14 31.0 °C 24.0 °C 1010.8 hPa WNW 15 km/h 16 km/h 66% 0.00 mm 519.04 W/m2
12:19 32.0 °C 24.0 °C 1010.5 hPa WSW 11 km/h 16 km/h 65% 0.00 mm 505.05 W/m2
12:24 32.0 °C 24.0 °C 1010.5 hPa WNW 12 km/h 16 km/h 63% 0.00 mm 501.21 W/m2
12:29 32.0 °C 24.0 °C 1010.5 hPa SSW 9 km/h 16 km/h 64% 0.00 mm 493.43 W/m2
12:34 31.0 °C 24.0 °C 1010.5 hPa South 10 km/h 12 km/h 64% 0.00 mm 471.87 W/m2
12:39 32.0 °C 24.0 °C 1010.5 hPa South 9 km/h 12 km/h 64% 0.00 mm 484.37 W/m2
12:44 32.0 °C 24.0 °C 1010.5 hPa WSW 8 km/h 12 km/h 64% 0.00 mm 497.12 W/m2
12:49 32.0 °C 24.0 °C 1010.5 hPa SSW 8 km/h 8 km/h 63% 0.00 mm 233.61 W/m2
12:54 32.0 °C 24.0 °C 1010.5 hPa SSW 7 km/h 8 km/h 63% 0.00 mm 301.38 W/m2
12:59 31.0 °C 23.0 °C 1010.2 hPa SSE 10 km/h 12 km/h 64% 0.00 mm 193.73 W/m2
13:04 31.0 °C 23.0 °C 1010.2 hPa SSW 11 km/h 16 km/h 66% 0.00 mm 436.96 W/m2
13:09 31.0 °C 24.0 °C 1010.2 hPa South 11 km/h 16 km/h 66% 0.00 mm 396.32 W/m2
13:14 31.0 °C 24.0 °C 1010.2 hPa South 10 km/h 16 km/h 66% 0.00 mm 403.07 W/m2
13:19 31.0 °C 24.0 °C 1010.2 hPa SSW 5 km/h 8 km/h 66% 0.00 mm 251.18 W/m2
13:24 31.0 °C 24.0 °C 1010.2 hPa WNW 11 km/h 16 km/h 68% 0.00 mm 399.74 W/m2
13:29 31.0 °C 24.0 °C 1009.8 hPa SW 10 km/h 12 km/h 68% 0.00 mm 491.96 W/m2
13:34 32.0 °C 25.0 °C 1009.8 hPa SSW 8 km/h 12 km/h 67% 0.00 mm 433.63 W/m2
13:39 32.0 °C 24.0 °C 1009.8 hPa West 10 km/h 12 km/h 66% 0.00 mm 489.24 W/m2
13:44 32.0 °C 24.0 °C 1009.5 hPa NW 12 km/h 12 km/h 66% 0.00 mm 425.26 W/m2
13:49 31.0 °C 24.0 °C 1009.8 hPa WSW 6 km/h 8 km/h 66% 0.00 mm 465.80 W/m2
13:54 31.0 °C 24.0 °C 1009.5 hPa SSW 10 km/h 12 km/h 65% 0.00 mm 385.43 W/m2
13:59 32.0 °C 24.0 °C 1009.5 hPa West 15 km/h 20 km/h 64% 0.00 mm 536.00 W/m2
14:04 31.0 °C 24.0 °C 1009.5 hPa WNW 15 km/h 20 km/h 64% 0.00 mm 546.23 W/m2
14:09 32.0 °C 24.0 °C 1009.1 hPa SSW 8 km/h 12 km/h 64% 0.00 mm 546.23 W/m2
14:14 32.0 °C 24.0 °C 1009.1 hPa SW 8 km/h 12 km/h 62% 0.00 mm 236.23 W/m2
14:19 32.0 °C 24.0 °C 1009.1 hPa South 10 km/h 12 km/h 62% 0.00 mm 514.96 W/m2
14:24 32.0 °C 24.0 °C 1009.1 hPa SW 13 km/h 16 km/h 62% 0.00 mm 518.33 W/m2
14:29 32.0 °C 24.0 °C 1009.1 hPa South 13 km/h 16 km/h 62% 0.00 mm 493.11 W/m2
14:34 33.0 °C 24.0 °C 1008.8 hPa South 14 km/h 20 km/h 63% 0.00 mm 492.42 W/m2
14:39 33.0 °C 25.0 °C 1008.8 hPa South 11 km/h 12 km/h 63% 0.00 mm 507.01 W/m2
14:44 33.0 °C 25.0 °C 1008.8 hPa SSW 9 km/h 12 km/h 62% 0.00 mm 520.61 W/m2
14:49 33.0 °C 25.0 °C 1008.8 hPa West 8 km/h 12 km/h 63% 0.00 mm 532.30 W/m2
14:54 33.0 °C 25.0 °C 1008.8 hPa SW 7 km/h 12 km/h 62% 0.00 mm 514.13 W/m2
14:59 34.0 °C 25.0 °C 1008.8 hPa South 6 km/h 8 km/h 60% 0.00 mm 519.68 W/m2
15:04 33.0 °C 25.0 °C 1008.8 hPa SSW 10 km/h 16 km/h 62% 0.00 mm 487.82 W/m2
15:09 33.0 °C 25.0 °C 1008.8 hPa SSW 10 km/h 16 km/h 63% 0.00 mm 439.94 W/m2
15:14 33.0 °C 24.0 °C 1008.8 hPa SSW 15 km/h 16 km/h 62% 0.00 mm 336.98 W/m2
15:19 32.0 °C 24.0 °C 1008.8 hPa West 10 km/h 16 km/h 64% 0.00 mm 190.79 W/m2
15:24 31.0 °C 24.0 °C 1008.8 hPa SW 12 km/h 16 km/h 66% 0.00 mm 135.72 W/m2
15:29 31.0 °C 24.0 °C 1008.8 hPa SSE 9 km/h 12 km/h 67% 0.00 mm 109.24 W/m2
15:34 31.0 °C 24.0 °C 1008.8 hPa South 10 km/h 12 km/h 68% 0.00 mm 86.44 W/m2
15:39 31.0 °C 24.0 °C 1008.8 hPa SSW 10 km/h 12 km/h 67% 0.00 mm 74.75 W/m2
15:44 31.0 °C 24.0 °C 1008.8 hPa SW 9 km/h 12 km/h 67% 0.00 mm 76.79 W/m2
15:49 30.0 °C 24.0 °C 1008.8 hPa WNW 6 km/h 12 km/h 67% 0.00 mm 76.99 W/m2
15:54 30.0 °C 24.0 °C 1008.8 hPa SSW 8 km/h 12 km/h 67% 0.00 mm 85.31 W/m2
15:59 30.0 °C 24.0 °C 1008.8 hPa South 5 km/h 8 km/h 67% 0.00 mm 114.48 W/m2
16:04 30.0 °C 24.0 °C 1008.8 hPa SSW 4 km/h 8 km/h 67% 0.00 mm 100.70 W/m2
16:09 31.0 °C 24.0 °C 1008.8 hPa SSE 5 km/h 8 km/h 67% 0.00 mm 197.32 W/m2
16:14 31.0 °C 24.0 °C 1008.8 hPa South 8 km/h 12 km/h 66% 0.00 mm 287.36 W/m2
16:19 32.0 °C 24.0 °C 1009.1 hPa South 6 km/h 8 km/h 66% 0.00 mm 292.62 W/m2
16:24 32.0 °C 24.0 °C 1009.1 hPa SSE 7 km/h 8 km/h 65% 0.00 mm 282.25 W/m2
16:29 32.0 °C 24.0 °C 1009.1 hPa WNW 10 km/h 12 km/h 65% 0.00 mm 127.47 W/m2
16:34 31.0 °C 24.0 °C 1009.1 hPa WNW 7 km/h 12 km/h 67% 0.00 mm 73.17 W/m2
16:39 31.0 °C 24.0 °C 1009.1 hPa NW 6 km/h 12 km/h 67% 0.00 mm 194.61 W/m2
16:44 31.0 °C 24.0 °C 1009.1 hPa SW 3 km/h 4 km/h 67% 0.00 mm 56.52 W/m2
16:49 31.0 °C 24.0 °C 1009.1 hPa WNW 4 km/h 8 km/h 68% 0.00 mm 56.67 W/m2
16:54 31.0 °C 24.0 °C 1009.1 hPa SSW 2 km/h 4 km/h 68% 0.00 mm 63.85 W/m2
16:59 31.0 °C 24.0 °C 1009.1 hPa NNW 4 km/h 4 km/h 69% 0.00 mm 63.65 W/m2
17:04 30.0 °C 24.0 °C 1009.1 hPa NW 5 km/h 8 km/h 70% 0.00 mm 54.48 W/m2
17:09 31.0 °C 24.0 °C 1009.1 hPa ENE 8 km/h 12 km/h 67% 0.00 mm 47.91 W/m2
17:14 31.0 °C 23.0 °C 1009.1 hPa ENE 10 km/h 12 km/h 63% 0.00 mm 35.82 W/m2
17:19 31.0 °C 23.0 °C 1009.5 hPa East 10 km/h 12 km/h 64% 0.00 mm 31.91 W/m2
17:24 30.0 °C 23.0 °C 1009.1 hPa NNE 17 km/h 24 km/h 67% 0.00 mm 24.93 W/m2
17:29 30.0 °C 23.0 °C 1009.5 hPa NNE 13 km/h 16 km/h 67% 0.00 mm 22.03 W/m2
17:34 30.0 °C 23.0 °C 1009.5 hPa NNE 22 km/h 24 km/h 68% 0.00 mm 18.91 W/m2
17:39 29.0 °C 23.0 °C 1009.5 hPa NNE 15 km/h 16 km/h 69% 0.00 mm 17.92 W/m2
17:44 29.0 °C 23.0 °C 1009.5 hPa NNE 15 km/h 20 km/h 69% 0.00 mm 17.42 W/m2
17:49 29.0 °C 23.0 °C 1009.5 hPa NNE 16 km/h 20 km/h 69% 0.00 mm 16.75 W/m2
17:54 29.0 °C 23.0 °C 1009.5 hPa NE 6 km/h 16 km/h 70% 0.00 mm 11.40 W/m2
17:59 29.0 °C 23.0 °C 1009.8 hPa NE 3 km/h 4 km/h 70% 0.00 mm 7.13 W/m2
18:04 29.0 °C 23.0 °C 1009.8 hPa ENE 7 km/h 8 km/h 70% 0.00 mm 3.98 W/m2
18:09 29.0 °C 23.0 °C 1010.2 hPa NNE 15 km/h 16 km/h 70% 0.00 mm 0.69 W/m2
18:14 29.0 °C 23.0 °C 1009.8 hPa ENE 5 km/h 8 km/h 70% 0.00 mm 0.00 W/m2
18:19 29.0 °C 23.0 °C 1009.8 hPa NNE 10 km/h 12 km/h 70% 0.00 mm 0.00 W/m2
18:24 29.0 °C 23.0 °C 1010.2 hPa NE 10 km/h 12 km/h 70% 0.00 mm 0.00 W/m2
18:29 29.0 °C 23.0 °C 1010.2 hPa NE 9 km/h 12 km/h 70% 0.00 mm 0.00 W/m2
18:34 28.0 °C 22.0 °C 1010.2 hPa NE 4 km/h 8 km/h 70% 0.00 mm 0.00 W/m2
18:39 28.0 °C 22.0 °C 1010.2 hPa ENE 3 km/h 4 km/h 70% 0.00 mm 0.00 W/m2
18:44 28.0 °C 22.0 °C 1010.2 hPa ENE 3 km/h 4 km/h 70% 0.00 mm 0.00 W/m2
18:49 28.0 °C 22.0 °C 1010.5 hPa WNW 5 km/h 8 km/h 70% 0.00 mm 0.00 W/m2
18:54 28.0 °C 23.0 °C 1010.5 hPa SE 5 km/h 8 km/h 71% 0.00 mm 0.00 W/m2
18:59 28.0 °C 22.0 °C 1010.5 hPa SE 5 km/h 8 km/h 71% 0.00 mm 0.00 W/m2
19:04 28.0 °C 22.0 °C 1010.5 hPa SSE 4 km/h 4 km/h 71% 0.00 mm 0.00 W/m2
19:09 28.0 °C 22.0 °C 1010.8 hPa SW 5 km/h 8 km/h 71% 0.00 mm 0.00 W/m2
19:14 28.0 °C 22.0 °C 1010.8 hPa South 4 km/h 8 km/h 72% 0.00 mm 0.00 W/m2
19:19 28.0 °C 22.0 °C 1011.2 hPa ESE 4 km/h 4 km/h 72% 0.00 mm 0.00 W/m2
19:24 28.0 °C 22.0 °C 1010.8 hPa NE 4 km/h 8 km/h 72% 0.00 mm 0.00 W/m2
19:29 28.0 °C 22.0 °C 1011.2 hPa ENE 8 km/h 8 km/h 72% 0.00 mm 0.00 W/m2
19:34 28.0 °C 22.0 °C 1011.2 hPa SSE 3 km/h 4 km/h 72% 0.00 mm 0.00 W/m2
19:39 28.0 °C 22.0 °C 1011.2 hPa ESE 5 km/h 8 km/h 72% 0.00 mm 0.00 W/m2
19:44 28.0 °C 22.0 °C 1011.2 hPa NE 5 km/h 8 km/h 72% 0.00 mm 0.00 W/m2
19:49 28.0 °C 22.0 °C 1011.2 hPa NE 9 km/h 12 km/h 73% 0.00 mm 0.00 W/m2
19:54 28.0 °C 22.0 °C 1011.2 hPa NE 5 km/h 8 km/h 73% 0.00 mm 0.00 W/m2
19:59 28.0 °C 22.0 °C 1011.5 hPa ENE 4 km/h 4 km/h 73% 0.00 mm 0.00 W/m2
20:04 28.0 °C 22.0 °C 1011.5 hPa NE 2 km/h 4 km/h 73% 0.00 mm 0.00 W/m2
20:09 28.0 °C 22.0 °C 1011.5 hPa NNE 8 km/h 12 km/h 73% 0.00 mm 0.00 W/m2
20:14 28.0 °C 22.0 °C 1011.5 hPa NE 5 km/h 8 km/h 73% 0.00 mm 0.00 W/m2
20:19 28.0 °C 22.0 °C 1011.5 hPa NNE 7 km/h 8 km/h 73% 0.00 mm 0.00 W/m2
20:24 28.0 °C 22.0 °C 1011.5 hPa NE 4 km/h 8 km/h 73% 0.00 mm 0.00 W/m2
20:29 28.0 °C 22.0 °C 1011.5 hPa ENE 7 km/h 12 km/h 73% 0.00 mm 0.00 W/m2
20:34 27.0 °C 22.0 °C 1011.5 hPa NNE 5 km/h 8 km/h 73% 0.00 mm 0.00 W/m2
20:39 27.0 °C 22.0 °C 1011.5 hPa NE 2 km/h 4 km/h 73% 0.00 mm 0.00 W/m2
20:44 27.0 °C 22.0 °C 1011.9 hPa SE 4 km/h 4 km/h 73% 0.00 mm 0.00 W/m2
20:49 27.0 °C 22.0 °C 1011.9 hPa East 3 km/h 4 km/h 73% 0.00 mm 0.00 W/m2
20:54 28.0 °C 22.0 °C 1011.9 hPa ESE 3 km/h 4 km/h 73% 0.00 mm 0.00 W/m2
20:59 28.0 °C 22.0 °C 1011.9 hPa NNE 7 km/h 8 km/h 73% 0.00 mm 0.00 W/m2
21:04 28.0 °C 22.0 °C 1011.9 hPa East 6 km/h 8 km/h 73% 0.00 mm 0.00 W/m2
21:09 28.0 °C 22.0 °C 1011.9 hPa SE 4 km/h 4 km/h 73% 0.00 mm 0.00 W/m2
21:14 28.0 °C 22.0 °C 1011.9 hPa ESE 5 km/h 8 km/h 73% 0.00 mm 0.00 W/m2
21:19 28.0 °C 22.0 °C 1011.9 hPa SE 3 km/h 4 km/h 73% 0.00 mm 0.00 W/m2
21:24 28.0 °C 22.0 °C 1011.9 hPa ESE 6 km/h 8 km/h 73% 0.00 mm 0.00 W/m2
21:29 27.0 °C 22.0 °C 1011.9 hPa ESE 6 km/h 12 km/h 73% 0.00 mm 0.00 W/m2
21:34 27.0 °C 22.0 °C 1011.9 hPa ESE 4 km/h 8 km/h 73% 0.00 mm 0.00 W/m2
21:39 28.0 °C 22.0 °C 1011.9 hPa East 1 km/h 4 km/h 73% 0.00 mm 0.00 W/m2
21:44 28.0 °C 22.0 °C 1011.9 hPa ESE 5 km/h 8 km/h 73% 0.00 mm 0.00 W/m2
21:49 27.0 °C 22.0 °C 1011.5 hPa East 3 km/h 8 km/h 73% 0.00 mm 0.00 W/m2
21:54 27.0 °C 22.0 °C 1011.5 hPa East 6 km/h 8 km/h 73% 0.00 mm 0.00 W/m2
21:59 27.0 °C 22.0 °C 1011.5 hPa SE 5 km/h 8 km/h 73% 0.00 mm 0.00 W/m2
22:04 27.0 °C 22.0 °C 1011.5 hPa SE 3 km/h 4 km/h 73% 0.00 mm 0.00 W/m2
22:09 27.0 °C 22.0 °C 1011.5 hPa SSW 2 km/h 4 km/h 73% 0.00 mm 0.00 W/m2
22:14 27.0 °C 22.0 °C 1011.5 hPa East 4 km/h 4 km/h 73% 0.00 mm 0.00 W/m2
22:19 27.0 °C 22.0 °C 1011.5 hPa East 3 km/h 4 km/h 74% 0.00 mm 0.00 W/m2
22:24 27.0 °C 22.0 °C 1011.9 hPa East 5 km/h 8 km/h 73% 0.00 mm 0.00 W/m2
22:29 27.0 °C 22.0 °C 1011.9 hPa SE 1 km/h 4 km/h 73% 0.00 mm 0.00 W/m2
22:34 27.0 °C 22.0 °C 1011.5 hPa Calm   4 km/h 73% 0.00 mm 0.00 W/m2
22:39 27.0 °C 22.0 °C 1011.5 hPa East 2 km/h 4 km/h 73% 0.00 mm 0.00 W/m2
22:44 27.0 °C 22.0 °C 1011.9 hPa ESE 4 km/h 4 km/h 73% 0.00 mm 0.00 W/m2
22:49 27.0 °C 22.0 °C 1011.5 hPa East 3 km/h 4 km/h 73% 0.00 mm 0.00 W/m2
22:54 27.0 °C 22.0 °C 1011.5 hPa NE 3 km/h 4 km/h 72% 0.00 mm 0.00 W/m2
22:59 27.0 °C 22.0 °C 1011.5 hPa East 4 km/h 8 km/h 72% 0.00 mm 0.00 W/m2
23:04 27.0 °C 22.0 °C 1011.9 hPa East 4 km/h 8 km/h 72% 0.00 mm 0.00 W/m2
23:09 27.0 °C 22.0 °C 1011.9 hPa NE 1 km/h 4 km/h 72% 0.00 mm 0.00 W/m2
23:14 28.0 °C 22.0 °C 1011.9 hPa SE 3 km/h 4 km/h 72% 0.00 mm 0.00 W/m2
23:19 27.0 °C 22.0 °C 1011.5 hPa East 9 km/h 12 km/h 72% 0.00 mm 0.00 W/m2
23:24 27.0 °C 22.0 °C 1011.5 hPa ESE 8 km/h 12 km/h 72% 0.00 mm 0.00 W/m2
23:29 27.0 °C 22.0 °C 1011.5 hPa East 9 km/h 12 km/h 73% 0.00 mm 0.00 W/m2
23:34 27.0 °C 22.0 °C 1011.5 hPa ESE 8 km/h 12 km/h 73% 0.00 mm 0.00 W/m2
23:39 27.0 °C 22.0 °C 1011.5 hPa East 6 km/h 8 km/h 73% 0.00 mm 0.00 W/m2
23:44 27.0 °C 22.0 °C 1011.5 hPa SE 9 km/h 12 km/h 74% 0.00 mm 0.00 W/m2
23:49 27.0 °C 22.0 °C 1011.2 hPa ESE 8 km/h 12 km/h 75% 0.00 mm 0.00 W/m2
23:54 27.0 °C 22.0 °C 1011.2 hPa East 6 km/h 8 km/h 76% 0.00 mm 0.00 W/m2
23:59 27.0 °C 22.0 °C 1011.5 hPa ESE 7 km/h 8 km/h 77% 0.00 mm 0.00 W/m2
PIMOHWEATHER Philippines
Compliments of Weather Underground - 2 mb